Theta_e
278 278 278 278 278 277 276 272 272 275 275 276 275 276 276 280 280 280 280 280 281 280 281 281 281 282 281 281 281 281 281 282
276 276 271 271 270 271 270 268 270 272 273 274 274 274 277 279 279 279 279 280 279 280 280 280 280 281 281 281 280 279 279 281
274 270 269 269 269 269 267 265 270 270 271 272 273 272 277 278 279 279 279 280 280 280 280 280 281 280 279 279 280 279 279 278
271 270 267 267 265 265 264 266 267 265 268 270 271 271 270 275 278 279 279 279 280 281 280 280 280 280 281 281 280 272 275 275
269 270 269 267 266 266 266 265 265 265 267 269 269 270 270 276 278 279 279 279 280 280 280 279 274 274 273 274 270 267 268 271
269 269 267 269 269 266 266 264 263 263 265 268 267 266 268 271 276 278 279 280 273 271 270 270 270 273 271 271 269 267 267 269
269 269 271 270 270 270 268 266 262 263 266 266 264 266 268 269 270 270 271 270 268 269 268 270 274 280 282 280 268 268 271 271
270 271 272 273 276 272 271 265 265 267 269 270 269 270 271 272 272 271 270 269 269 269 269 270 270 280 282 283 273 269 270 272
269 273 273 273 272 274 275 274 272 270 271 272 272 273 273 273 272 272 271 271 272 272 273 274 276 281 282 283 279 276 275 275
268 269 271 270 272 273 273 272 273 272 272 273 274 274 274 274 273 273 272 273 273 275 274 274 276 280 281 281 279 278 276 276
271 270 270 271 272 274 274 273 273 274 275 275 275 274 274 274 274 275 274 275 275 276 275 275 275 279 281 281 278 277 276 276
270 269 270 271 272 272 272 271 274 274 274 275 275 275 275 275 275 274 273 274 272 273 273 273 274 275 280 281 279 277 276 276
272 272 272 273 272 271 271 272 272 272 271 271 271 273 275 272 273 271 271 270 270 269 271 272 273 275 278 281 282 281 277 276
271 271 271 271 271 270 270 271 270 269 268 269 270 272 273 270 271 270 269 270 271 271 271 272 272 272 278 281 282 283 280 276
270 269 269 270 270 269 269 269 267 266 267 269 269 270 270 272 272 271 271 269 271 271 271 272 272 271 270 272 272 276 278 278
268 268 268 268 268 268 268 267 266 267 268 268 269 269 270 271 272 272 273 274 272 272 273 272 272 274 276 275 270 269 272 268
266 266 266 266 266 266 266 266 265 266 267 268 268 269 270 270 271 276 279 280 281 282 281 278 278 280 281 282 283 283 282 270
263 263 262 262 262 264 264 264 264 265 266 268 268 269 269 269 270 270 272 277 278 280 280 280 281 282 283 284 284 283 283 278
258 257 255 257 258 260 261 263 263 264 266 268 268 268 267 268 268 268 266 267 268 273 277 278 278 279 279 279 278 274 274 272
252 253 253 255 257 258 259 260 260 263 266 266 264 264 264 263 263 262 262 262 261 262 269 269 275 275 275 276 269 268 269 271
Wind_Speed
5 5 4 4 3 3 2 4 3 3 3 3 3 4 2 2 4 4 4 5 4 4 5 6 6 5 5 5 6 7 6 7
6 5 3 2 3 3 3 3 4 3 3 4 4 3 3 4 4 5 4 4 4 5 6 6 5 4 5 6 7 8 9 8
6 5 5 6 5 5 3 4 4 4 4 3 3 4 5 4 5 5 4 4 5 6 6 5 4 5 5 6 6 6 8 10
6 7 5 4 5 5 5 6 5 3 3 3 5 5 5 6 5 4 4 5 5 6 5 5 5 5 6 5 4 4 6 7
6 7 7 6 6 6 6 5 4 3 3 5 5 5 5 6 4 5 5 5 6 5 5 5 3 5 5 5 4 4 4 5
7 6 5 6 6 5 6 5 4 4 4 7 5 4 6 6 5 6 5 5 4 4 4 5 4 4 5 5 5 4 4 4
7 7 7 5 6 6 6 6 4 5 7 6 4 5 7 6 6 5 6 6 5 6 4 6 5 11 12 8 4 4 5 5
7 6 7 6 6 7 7 2 4 5 6 6 5 6 6 6 5 6 6 4 6 6 5 7 6 13 12 13 3 4 5 5
5 5 6 5 5 6 5 4 5 6 6 5 6 8 7 6 7 6 5 6 7 6 6 7 7 13 13 12 5 4 6 5
4 4 5 6 6 6 6 4 4 5 6 6 6 8 7 8 8 6 5 6 7 6 6 7 8 13 13 11 5 6 6 5
6 4 4 6 6 6 6 6 5 6 6 6 6 7 8 8 8 6 6 8 6 8 7 8 9 13 15 12 4 7 5 5
4 4 6 6 6 6 6 5 8 8 9 8 7 8 8 8 7 6 7 7 6 8 7 7 8 10 17 17 7 6 5 5
6 6 6 7 7 8 7 9 9 8 9 9 8 7 7 6 7 6 5 6 7 6 8 7 7 12 15 17 17 13 7 7
6 7 6 6 7 8 9 10 10 10 9 8 9 8 7 5 6 4 4 6 7 6 8 8 4 5 15 17 17 17 10 5
7 7 7 7 8 7 9 9 9 10 10 8 8 8 6 5 4 5 4 5 7 7 8 8 6 4 3 5 6 11 9 8
6 7 8 8 8 7 9 9 8 8 8 8 6 7 7 6 5 5 6 7 6 6 6 6 7 6 9 7 4 4 7 3
6 6 7 8 9 8 8 8 9 9 7 7 6 7 6 6 7 10 12 14 16 19 15 8 17 19 17 17 16 15 14 3
6 7 6 6 8 8 9 8 8 8 8 6 6 6 7 7 6 8 7 13 12 13 14 15 12 14 13 14 14 15 13 6
5 6 5 6 7 7 8 8 8 8 9 6 6 6 6 5 6 5 5 6 5 9 10 11 13 12 11 10 8 3 2 0
4 5 4 5 7 6 6 7 7 6 5 5 5 4 5 4 4 4 4 4 3 4 7 8 13 12 11 10 2 1 2 1
Wind_Direction
316 301 268 238 201 190 172 205 223 250 247 252 262 276 260 275 261 260 265 255 264 283 270 262 259 258 262 267 266 263 270 277
316 311 300 286 255 247 234 226 251 257 258 253 276 284 272 253 256 259 253 259 276 271 270 268 266 265 264 266 281 279 279 281
333 315 300 284 280 264 262 246 247 251 249 269 297 285 262 264 253 252 257 258 262 265 265 268 271 266 272 270 269 292 296 295
346 338 314 303 284 269 253 248 248 239 261 278 264 265 268 264 251 259 260 265 264 261 261 269 266 274 270 262 270 278 281 290
332 328 322 323 301 286 274 244 245 246 236 257 253 253 255 257 262 266 256 258 260 257 258 268 271 273 277 269 266 290 280 289
317 312 298 317 318 296 267 249 222 226 239 250 250 253 263 266 249 254 250 252 265 279 283 278 263 259 265 250 244 260 287 283
305 316 313 312 309 302 291 268 180 223 241 250 255 255 252 249 246 257 264 265 271 268 251 273 268 280 283 285 224 250 263 282
304 306 303 309 321 311 301 268 219 233 244 243 245 250 247 246 240 242 247 243 257 263 255 260 254 271 277 281 232 244 258 264
291 317 306 311 312 304 299 279 249 249 251 240 235 249 250 241 241 245 232 239 251 249 247 257 263 274 277 279 270 266 266 255
273 277 305 315 311 309 308 298 282 274 264 254 239 247 244 243 244 236 231 242 244 246 250 249 261 268 273 277 264 263 266 268
315 295 314 320 322 328 328 327 319 313 297 268 254 247 250 247 246 242 230 250 244 252 238 242 259 266 270 268 245 259 258 262
322 314 307 317 335 336 332 341 330 324 314 302 283 264 256 256 244 238 239 245 241 250 253 246 248 264 269 265 246 235 248 257
340 337 333 347 344 341 336 330 322 316 311 304 296 288 281 253 257 244 240 248 253 251 267 255 247 245 264 264 253 244 228 244
334 331 340 347 344 336 329 327 323 317 308 304 303 296 287 269 266 255 230 247 262 251 266 271 251 237 263 270 266 255 251 220
334 336 339 346 338 333 326 327 319 313 313 312 313 309 296 278 262 254 246 241 252 255 258 268 268 260 237 251 265 274 268 268
334 332 330 335 333 332 331 328 319 314 312 315 313 309 306 291 273 262 251 243 253 256 255 263 273 267 264 261 234 231 241 234
325 324 327 330 327 327 328 325 319 319 320 318 315 313 309 307 307 301 304 299 276 271 265 242 242 264 270 271 270 271 263 196
317 311 313 316 316 320 326 320 318 314 313 317 317 320 322 324 320 323 326 330 325 318 320 313 313 327 309 278 286 275 264 246
295 300 304 316 311 308 318 319 316 311 306 316 327 322 317 319 320 322 327 332 329 335 336 351 343 340 349 348 353 336 354 298
286 290 307 315 305 308 311 314 309 314 316 331 319 317 324 325 333 335 341 344 321 331 351 344 344 351 356 354 17 319 320 326